BEIDOU-3 G2

Last updated on Jan. 23, 2021, 7:16 a.m. UTC

1 45344U 20017A   21022.86477691 -.00000125  00000-0  00000-0 0  9994
2 45344   2.6274 332.8534 0001254   0.3559 180.5611  1.00272222  3491
UTC
Height (km)
Latitude
Longitude
Inclination
Orbital Period
UTC large
Height (km)
Speed (km/s)
/
Latitude / Longitude
Inclination (degrees)
Orbital Period (minutes)
Azimuth
Elevation
Range (km)
Doppler Factor
iOS Compass Heading
iOS Angle

Next 30 passes for location: Hong Kong

Rise time Rise Azimuth (degrees) Set time Set Azimuth (degrees) Duration Max altitude (degrees)

No matching passes for this satellites